Location: ?????????
(38.5999°N, 22.7695°E)
Time: 13:09:47
(UTC+00:00)

CZ-2C R/B - Pass Details

Date: 23 May 2024
Orbit: 783 x 868 km, 98.3° (Epoch: 12 June)

Event Time Altitude Azimuth Distance (km) Brightness Sun altitude
Exits shadow 00:47:46 43° 177° (S) 1,088 2.9 -22.0°
Maximum altitude 00:49:29 80° 257° (WSW) 799 2.4 -21.8°
Drops below altitude 10° 00:54:40 10° 345° (NNW) 2,350 5.5 -21.2°
Sets 00:57:01 0° 346° (NNW) 3,287 6.3 -21.0°
